sat.trackr.live / text

‹ back to catalog

STARLINK-4270

NORAD 52863 · 2022-062AK

PAYLOAD ACTIVE UNKNOWN

§ Identity

Operator
Country
US
Launch date
2022-06-17
Launch site
AFETR
Launch vehicle
Mass (kg)
RCS (m²)

Purposes: comms

External: N2YO · Heavens-Above · Gunter

§ Orbital elements

Epoch: 2026-09-19T11:17:08.506176Z

Period
93.85 min
Inclination
53.1607°
Eccentricity
0.0001395
Mean motion
15.34387661 rev/d
Perigee alt
461.8 km
Apogee alt
463.7 km
Semi-major
6,840.9 km
B*
3.0629e-5
RAAN
222.1974°
Arg perigee
88.9579°
Mean anomaly
271.1583°
Rev number
23,534

§ Raw data

STARLINK-42701 52863U 22062AK  26262.47023734  .00000658  00000+0  30629-4 0  99962 52863  53.1607 222.1974 0001395  88.9579 271.1583 15.34387661235347

JSON: /api/v1/satellites/52863 · /tle

For live sub-satellite position, see the globe view (requires WebGL).

§ Visibility from observer

Set your observer location to see the next 7 days of passes ≥ 10°. The values pass through the URL so the page stays shareable.

No JS? Fill the form by hand. The geolocation button needs JavaScript.